15min,AgWx,beryljct,423,12MAY2019:00:00:00,42.3,12.9,41.3,41.7,42.0,43.6,39.9,72,78,67,0.636,33.8,35.0,32.4,3.661,3.9,295,27,6.5,-0.00003,-0.00002,55.6,55.7,20,0,0,36.7,15.15,0.00,0.00
15min,AgWx,beryljct,423,12MAY2019:00:15:00,42.1,12.9,41.0,41.3,41.7,44.3,39.2,72,79,64,0.642,33.3,34.3,32.1,4.911,2.3,167,80,5.9,-0.00011,-0.00013,55.4,55.7,19,0,0,36.3,15.15,0.00,0.00
15min,AgWx,beryljct,423,12MAY2019:00:30:00,41.7,12.87,38.6,38.9,40.3,42.5,38.9,79,85,72,0.680,34.3,35.5,33.0,3.223,3.6,159,11,5.1,-0.00007,-0.00007,55.2,55.7,19,0,0,35.9,15.16,0.00,0.00
15min,AgWx,beryljct,423,12MAY2019:00:45:00,40.8,12.87,36.7,36.3,37.1,38.9,36.1,89,93,85,0.665,34.2,35.1,33.5,3.069,3.2,149,9.3,4.2,-0.00012,-0.00014,55.0,55.6,19,0,0,35.4,15.15,0.00,0.00
15min,AgWx,beryljct,423,12MAY2019:01:00:00,39.9,12.84,37.8,37.4,36.9,37.4,36.3,92,93,91,0.692,34.8,35.2,34.1,1.469,1.6,166,4.3,3.1,-0.00017,-0.00023,54.8,55.6,19,0,0,36.3,15.16,0.01,0.00
15min,AgWx,beryljct,423,12MAY2019:01:15:00,39.2,12.85,36.5,36.4,36.4,37.5,35.8,92,95,90,0.681,34.4,35.3,33.6,1.271,1.8,161,7.6,2.9,-0.00017,-0.00022,54.6,55.5,19,0,0,36.1,15.16,0.00,0.00
15min,AgWx,beryljct,423,12MAY2019:01:30:00,38.5,12.85,36.0,35.9,35.9,36.6,35.2,94,96,93,0.673,34.4,35.1,33.6,0,1.0,173,5.0,2.0,-0.00020,-0.00028,54.4,55.5,19,0,0,35.8,15.16,0.00,0.00
15min,AgWx,beryljct,423,12MAY2019:01:45:00,38.0,12.82,35.5,35.6,35.7,36.5,34.9,95,96,94,0.678,34.3,35.0,33.3,0,0.2,177,0.0,0.9,-0.00024,-0.00037,54.2,55.4,19,0,0,35.5,15.16,0.00,0.00
15min,AgWx,beryljct,423,12MAY2019:02:00:00,37.5,12.82,33.5,33.6,34.8,36.1,33.6,94,96,93,0.617,33.4,34.9,32.2,2.192,2.1,124,8.0,3.3,-0.00016,-0.00020,54.0,55.4,19,0,0,35.0,15.16,0.00,0.00
15min,AgWx,beryljct,423,12MAY2019:02:15:00,36.9,12.81,34.2,34.5,33.7,34.7,33.3,96,96,95,0.651,32.6,33.8,32.0,0.811,1.1,149,3.1,2.7,-0.00019,-0.00026,53.8,55.3,19,0,0,35.8,15.16,0.00,0.00
15min,AgWx,beryljct,423,12MAY2019:02:30:00,36.3,12.8,33.0,33.1,33.2,34.5,32.5,95,97,93,0.614,31.9,33.5,31.1,0,0.7,323,32,2.0,-0.00020,-0.00029,53.6,55.3,19,0,0,36.0,15.16,0.00,0.00
15min,AgWx,beryljct,423,12MAY2019:02:45:00,35.7,12.8,34.7,34.1,33.8,34.7,33.0,96,98,93,0.630,32.7,33.8,31.9,1.359,0.1,19,2.0,1.5,-0.00024,-0.00037,53.4,55.2,19,0,0,36.6,15.16,0.00,0.00
15min,AgWx,beryljct,423,12MAY2019:03:00:00,35.4,12.79,31.7,32.0,34.0,34.9,32.0,93,95,91,0.573,32.3,33.2,30.2,2.565,1.0,23,49,3.2,-0.00019,-0.00027,53.2,55.1,19,0,0,35.8,15.16,0.00,0.00
15min,AgWx,beryljct,423,12MAY2019:03:15:00,35.0,12.78,33.5,33.2,32.7,33.2,32.0,96,97,94,0.623,31.7,32.5,30.4,2.039,2.2,195,0.5,2.7,-0.00015,-0.00019,53.1,55.1,19,0,0,37.3,15.16,0.00,0.00
15min,AgWx,beryljct,423,12MAY2019:03:30:00,34.8,12.69,32.5,31.9,33.0,34.2,31.8,96,98,94,0.574,31.9,33.5,30.3,2.938,2.7,165,17,3.8,-0.00014,-0.00017,52.9,55.0,19,0,0,36.8,15.16,0.00,0.00
15min,AgWx,beryljct,423,12MAY2019:03:45:00,34.5,12.77,32.9,32.8,32.4,32.8,31.9,96,97,94,0.607,31.3,32.0,30.5,0,2.4,157,13,3.4,-0.00014,-0.00018,52.7,54.9,19,0,0,36.0,15.16,0.00,0.00
15min,AgWx,beryljct,423,12MAY2019:04:00:00,34.1,12.76,33.0,32.6,32.4,33.2,31.8,96,97,94,0.592,31.4,32.5,30.7,1.337,0.9,169,2.6,1.4,-0.00019,-0.00028,52.5,54.8,19,0,0,37.3,15.16,0.00,0.00
15min,AgWx,beryljct,423,12MAY2019:04:15:00,33.9,12.77,32.3,32.0,32.6,33.1,32.0,95,96,94,0.579,31.2,32.0,30.6,2.543,2.1,165,0.1,3.0,-0.00015,-0.00019,52.3,54.8,19,0,0,36.6,15.16,0.00,0.00
15min,AgWx,beryljct,423,12MAY2019:04:30:00,33.7,12.75,32.5,32.5,32.6,33.1,32.0,95,96,94,0.585,31.3,31.7,30.7,1.556,2.4,174,4.8,3.0,-0.00014,-0.00018,52.1,54.7,19,0,0,35.8,15.16,0.00,0.00
15min,AgWx,beryljct,423,12MAY2019:04:45:00,33.5,12.75,31.9,32.2,32.0,32.7,31.4,95,96,93,0.579,30.6,31.5,29.9,2.696,3.1,162,17,4.4,0.00003,0.00005,51.9,54.6,19,0,0,35.5,15.16,0.00,0.00
15min,AgWx,beryljct,423,12MAY2019:05:00:00,33.4,12.74,33.4,33.2,32.6,33.2,31.9,94,95,94,0.603,31.1,31.7,30.4,1.6,2.8,182,2.2,3.8,0.00003,0.00005,51.8,54.5,19,0,0,36.8,15.16,0.00,0.00
15min,AgWx,beryljct,423,12MAY2019:05:15:00,33.4,12.74,32.7,32.6,33.0,33.4,32.6,93,94,92,0.582,31.2,31.9,30.8,2.565,2.6,182,3.5,3.9,0.00004,0.00006,51.6,54.5,19,0,0,37.5,15.16,0.00,0.00
15min,AgWx,beryljct,423,12MAY2019:05:30:00,33.3,12.73,31.6,32.4,32.9,33.4,32.4,93,95,91,0.566,31.2,31.8,30.1,1.271,0.8,183,2.6,2.6,0.00003,0.00004,51.4,54.4,19,3,0,37.7,15.16,0.00,0.00
15min,AgWx,beryljct,423,12MAY2019:05:45:00,33.2,12.74,31.5,31.1,31.2,32.2,30.6,94,96,91,0.567,29.8,30.4,29.3,1.381,2.2,143,5.2,3.4,0.00010,0.00012,51.2,54.3,19,20,0,36.7,15.16,0.00,0.00
15min,AgWx,beryljct,423,12MAY2019:06:00:00,33.4,12.78,31.8,31.8,31.7,32.4,31.1,96,96,94,0.571,30.6,31.3,30.1,0,1.2,144,0.2,2.3,0.00023,0.00025,51.1,54.2,19,52,0,38.3,15.16,0.00,0.00
15min,AgWx,beryljct,423,12MAY2019:06:15:00,33.7,12.79,33.5,32.9,32.1,32.9,31.6,95,96,94,0.606,30.8,31.8,30.2,0.899,0.2,175,12,1.5,0.00035,0.00038,50.9,54.1,19,88,0,43.1,15.16,0.00,0.00
15min,AgWx,beryljct,423,12MAY2019:06:30:00,35.0,12.75,35.9,35.5,34.5,35.5,33.0,93,96,91,0.645,32.6,33.4,31.9,2.85,1.8,314,41,3.0,0.00050,0.00055,50.7,54.0,19,131,0,46.9,15.16,0.00,0.00
15min,AgWx,beryljct,423,12MAY2019:06:45:00,36.7,12.82,39.0,39.0,37.7,39.2,35.5,88,93,85,0.703,34.5,35.6,33.4,2.083,2.4,357,11,3.1,0.00072,0.00081,50.6,53.9,19,181,0,52.5,15.16,0.00,0.00
15min,AgWx,beryljct,423,12MAY2019:07:00:00,39.2,12.83,39.8,39.2,39.2,39.7,38.8,92,94,88,0.749,37.1,38.2,35.7,2.433,2.1,78,23,3.5,0.00093,0.00101,50.4,53.9,19,231,0,60.8,15.16,0.00,0.00
15min,AgWx,beryljct,423,12MAY2019:07:15:00,41.5,12.84,41.2,40.8,40.0,40.9,39.1,91,93,88,0.763,37.6,38.4,36.9,0,1.8,123,8.1,3.5,0.00117,0.00127,50.3,53.8,19,284,0,68.6,15.15,0.00,0.00
15min,AgWx,beryljct,423,12MAY2019:07:30:00,44.0,12.87,43.5,43.5,42.3,43.5,40.8,84,90,80,0.769,37.9,38.9,37.3,0.329,0.2,132,0.8,1.2,0.00153,0.00163,50.2,53.7,19,335,0,82.6,15.15,0.00,0.00
15min,AgWx,beryljct,423,12MAY2019:07:45:00,46.7,12.95,46.2,46.7,44.7,46.7,43.5,83,85,80,0.917,39.8,42.3,37.8,0,0.2,354,30,1.6,0.00184,0.00197,50.1,53.6,19,387,0,87.2,15.15,0.00,0.00
15min,AgWx,beryljct,423,12MAY2019:08:00:00,49.5,13.08,48.9,48.6,47.6,48.7,46.5,80,84,78,0.911,41.9,42.8,40.5,0.68,0.8,54,31,3.0,0.00218,0.00235,50.0,53.5,19,441,0,92.5,15.15,0.00,0.00
15min,AgWx,beryljct,423,12MAY2019:08:15:00,51.9,13.35,52.3,51.7,49.8,51.7,48.6,69,78,58,0.781,39.9,42.1,36.3,0,0.7,69,8.2,2.2,0.00253,0.00274,49.9,53.4,18,492,0,93.0,15.15,0.00,0.00
15min,AgWx,beryljct,423,12MAY2019:08:30:00,54.4,13.68,51.8,52.2,52.2,53.3,51.5,63,67,57,0.887,39.8,41.5,37.1,0.373,0.5,69,11,1.9,0.00291,0.00313,49.8,53.4,18,543,0,102.0,15.15,0.00,0.00
15min,AgWx,beryljct,423,12MAY2019:08:45:00,56.9,14.06,55.2,54.6,53.1,54.6,52.1,66,69,63,1.001,42.0,44.6,40.1,0,0.6,64,16,1.8,0.00320,0.00345,49.8,53.3,18,588,0,101.3,15.15,0.00,0.00
15min,AgWx,beryljct,423,12MAY2019:09:00:00,59.6,14.33,55.9,56.0,55.1,56.0,54.3,59,69,51,0.790,40.8,44.8,37.7,0,0.6,97,18,2.2,0.00359,0.00387,49.7,53.2,18,642,0,107.0,15.14,0.00,0.00
15min,AgWx,beryljct,423,12MAY2019:09:15:00,61.9,14.28,56.6,57.0,56.8,57.8,56.0,53,58,48,0.761,39.7,42.2,36.8,0,0.7,74,15,2.4,0.00395,0.00427,49.7,53.1,18,690,0,109.9,15.14,0.00,0.00
15min,AgWx,beryljct,423,12MAY2019:09:30:00,64.0,14.25,58.4,58.0,57.8,58.7,56.9,50,55,44,0.731,39.3,41.9,36.5,0.438,1.0,89,31,3.4,0.00425,0.00463,49.7,53.1,18,733,0,111.9,15.14,0.00,0.00
15min,AgWx,beryljct,423,12MAY2019:09:45:00,65.5,14.17,60.7,60.2,59.1,60.2,58.2,47,56,42,0.818,38.7,44.0,36.0,1.513,1.3,134,14,3.7,0.00456,0.00500,49.8,53.0,18,774,0,113.8,15.13,0.00,0.00
15min,AgWx,beryljct,423,12MAY2019:10:00:00,66.7,14.2,61.2,60.5,60.6,61.4,60.1,45,49,41,0.743,39.0,41.3,36.1,0,1.1,110,80,2.8,0.00488,0.00533,49.8,52.9,18,813,0,115.5,15.13,0.00,0.00
15min,AgWx,beryljct,423,12MAY2019:10:15:00,67.9,14.2,63.1,63.2,61.7,63.2,60.7,44,51,39,0.866,39.5,43.2,36.8,1.096,1.3,152,48,3.1,0.00515,0.00564,49.9,52.8,18,848,0,117.1,15.12,0.00,0.00
15min,AgWx,beryljct,423,12MAY2019:10:30:00,68.9,14.11,62.4,63.4,62.3,63.7,61.5,43,47,39,0.864,39.5,41.9,37.5,2.959,1.4,209,62,3.3,0.00539,0.00591,50.0,52.8,18,880,0,118.0,15.12,0.00,0.00
15min,AgWx,beryljct,423,12MAY2019:10:45:00,69.8,14.1,65.4,64.2,63.9,65.4,62.9,38,45,33,0.760,37.9,41.3,34.2,1.293,1.3,169,65,3.6,0.00567,0.00622,50.1,52.7,18,912,0,120.3,15.12,0.00,0.00
15min,AgWx,beryljct,423,12MAY2019:11:00:00,70.8,14.13,66.8,65.4,64.9,66.2,63.9,35,42,31,0.705,36.7,41.5,33.1,3.771,1.5,137,56,4.3,0.00591,0.00651,50.3,52.7,18,941,0,120.2,15.11,0.00,0.00
15min,AgWx,beryljct,423,12MAY2019:11:15:00,71.3,14.08,65.5,65.2,65.1,65.8,64.6,37,51,29,0.619,38.0,47.1,32.1,4.538,3.5,102,48,7.0,0.00612,0.00695,50.5,52.7,18,965,0,111.0,15.11,0.00,0.00
15min,AgWx,beryljct,423,12MAY2019:11:30:00,71.6,13.65,66.7,66.3,65.8,66.6,65.0,33,45,24,0.534,35.6,44.4,27.0,0.855,2.7,60,59,5.4,0.00628,0.00706,50.7,52.6,18,985,0,112.8,15.11,0.00,0.00
15min,AgWx,beryljct,423,12MAY2019:11:45:00,72.2,13.65,65.8,65.9,66.3,67.6,65.9,31,41,22,0.585,34.7,41.6,27.5,3.398,3.3,142,37,5.9,0.00643,0.00731,50.9,52.6,18,1002,0,115.5,15.10,0.00,0.00
15min,AgWx,beryljct,423,12MAY2019:12:00:00,72.5,13.64,66.9,66.3,66.1,66.5,65.7,31,44,24,0.750,33.9,44.0,27.9,2.653,2.8,109,35,6.1,0.00646,0.00729,51.2,52.6,18,1013,0,114.3,15.10,0.00,0.00
15min,AgWx,beryljct,423,12MAY2019:12:15:00,72.9,13.62,66.4,66.7,67.1,68.1,66.4,28,40,22,0.575,33.1,41.5,26.8,2.105,3.3,149,33,6.8,0.00663,0.00755,51.5,52.6,18,1023,0,113.6,15.10,0.00,0.00
15min,AgWx,beryljct,423,12MAY2019:12:30:00,73.2,13.64,67.5,67.5,67.5,68.6,66.7,28,39,19,0.842,32.9,41.7,24.5,5.108,3.2,157,25,6.6,0.00668,0.00759,51.9,52.6,18,1028,0,113.5,15.10,0.00,0.00
15min,AgWx,beryljct,423,12MAY2019:12:45:00,73.4,13.63,67.1,67.3,67.3,67.7,67.1,31,40,22,0.620,35.2,42.1,27.3,1.907,3.4,141,19,6.2,0.00666,0.00759,52.2,52.6,18,1025,0,111.4,15.10,0.00,0.00
15min,AgWx,beryljct,423,12MAY2019:13:00:00,73.6,13.61,67.1,67.4,67.4,67.7,67.1,29,41,18,0.462,33.6,43.1,22.2,2.631,3.0,121,22,5.6,0.00661,0.00749,52.6,52.7,18,1020,0,112.1,15.10,0.00,0.00
15min,AgWx,beryljct,423,12MAY2019:13:15:00,74.1,13.62,67.8,68.0,68.0,68.8,67.4,28,39,19,0.777,33.4,42.5,24.2,5.261,2.6,121,19,7.2,0.00659,0.00742,53.0,52.7,18,1012,0,114.5,15.10,0.00,0.00
15min,AgWx,beryljct,423,12MAY2019:13:30:00,74.4,13.71,67.9,68.9,68.8,70.3,67.8,23,41,15,0.446,28.4,43.3,20.4,1.469,3.1,180,50,7.4,0.00660,0.00754,53.4,52.8,18,1000,0,111.0,15.10,0.00,0.00
15min,AgWx,beryljct,423,12MAY2019:13:45:00,74.8,13.68,68.5,68.9,68.7,69.7,68.1,24,39,14,0.637,29.7,43.1,18.3,3.398,2.3,95,49,6.1,0.00642,0.00722,53.8,52.8,18,984,0,109.7,15.10,0.00,0.00
15min,AgWx,beryljct,423,12MAY2019:14:00:00,75.3,13.64,68.4,68.6,69.1,70.5,68.5,24,32,15,0.453,30.3,38.0,19.7,1.403,3.4,50,26,8.7,0.00640,0.00737,54.3,53.0,18,964,0,106.1,15.10,0.00,0.00
15min,AgWx,beryljct,423,12MAY2019:14:15:00,75.8,13.5,69.0,69.2,69.2,69.7,68.6,27,41,15,0.813,32.8,44.5,20.5,3.639,2.3,98,34,5.6,0.00602,0.00679,54.8,53.1,18,922,0,107.0,15.10,0.00,0.00
15min,AgWx,beryljct,423,12MAY2019:14:30:00,76.1,13.5,68.8,69.1,69.1,69.5,68.7,32,38,23,0.768,37.5,42.6,29.6,5.283,4.0,85,27,7.0,0.00606,0.00702,55.3,53.2,18,912,0,101.4,15.10,0.00,0.00
15min,AgWx,beryljct,423,12MAY2019:14:45:00,76.6,13.46,69.1,69.5,69.4,70.0,69.0,30,41,19,0.986,36.5,44.7,25.6,4.604,2.6,96,17,6.4,0.00578,0.00656,55.8,53.3,18,881,0,103.4,15.10,0.00,0.00
15min,AgWx,beryljct,423,12MAY2019:15:00:00,76.7,13.47,69.3,69.5,69.2,69.7,68.8,31,38,22,0.629,36.8,42.8,28.5,0.833,5.3,90,27,10.3,0.00573,0.00684,56.3,53.5,18,845,0,94.3,15.10,0.00,0.00
15min,AgWx,beryljct,423,12MAY2019:15:15:00,76.8,13.48,69.1,69.4,69.2,69.8,68.9,30,38,23,0.670,36.6,42.4,29.6,3.442,5.1,115,21,8.7,0.00529,0.00635,56.8,53.6,18,780,0,93.6,15.11,0.01,0.00
15min,AgWx,beryljct,423,12MAY2019:15:30:00,76.9,13.48,69.9,70.2,69.6,70.4,69.2,31,40,18,0.453,37.4,44.4,24.7,4.012,4.4,103,39,7.8,0.00502,0.00598,57.3,53.7,18,744,0,91.1,15.10,0.00,0.00
15min,AgWx,beryljct,423,12MAY2019:15:45:00,77.5,13.48,72.6,71.2,70.9,71.6,70.1,23,31,17,0.477,30.8,39.3,24.8,1.732,3.3,238,29,7.2,0.00492,0.00580,57.7,53.9,18,731,0,94.8,15.11,0.00,0.00
15min,AgWx,beryljct,423,12MAY2019:16:00:00,78.1,13.45,69.5,70.3,70.8,72.2,69.9,27,38,17,0.851,34.5,43.4,23.8,3.069,3.2,149,23,7.9,0.00459,0.00540,58.1,54.1,18,687,0,94.0,15.10,0.00,0.00
15min,AgWx,beryljct,423,12MAY2019:16:15:00,78.4,13.45,70.9,70.7,70.6,71.9,70.0,25,36,20,0.597,33.2,41.7,27.4,3.201,3.6,163,14,5.5,0.00419,0.00504,58.5,54.2,18,622,0,90.7,15.11,0.00,0.00
15min,AgWx,beryljct,423,12MAY2019:16:30:00,78.7,13.46,72.0,72.0,71.8,72.4,70.7,21,28,16,0.485,29.1,37.1,24.1,1.491,2.8,199,21,4.8,0.00395,0.00471,58.8,54.4,18,595,0,90.0,15.11,0.00,0.00
15min,AgWx,beryljct,423,12MAY2019:16:45:00,78.8,13.48,70.3,70.9,71.5,72.7,70.5,28,37,17,0.739,36.9,43.0,25.5,5.853,2.7,169,26,8.0,0.00356,0.00422,59.1,54.6,18,546,0,88.9,15.10,0.00,0.00
15min,AgWx,beryljct,423,12MAY2019:17:00:00,78.4,13.46,69.3,69.5,70.3,71.3,69.5,29,35,19,0.867,36.0,41.1,27.1,4.494,4.4,165,12,6.5,0.00344,0.00433,59.4,54.8,18,496,0,82.3,15.11,0.01,0.00
15min,AgWx,beryljct,423,12MAY2019:17:15:00,77.7,13.44,70.9,70.9,70.7,71.8,69.3,27,35,20,0.690,34.6,41.4,28.2,3.814,3.3,199,25,5.0,0.00295,0.00367,59.6,54.9,18,445,0,81.1,15.10,0.00,0.00
15min,AgWx,beryljct,423,12MAY2019:17:30:00,77.2,13.49,70.0,70.7,71.4,72.1,70.5,25,31,19,0.586,33.1,39.3,26.7,2.017,2.3,182,19,5.0,0.00246,0.00302,59.8,55.1,18,394,0,81.2,15.10,0.00,0.00
15min,AgWx,beryljct,423,12MAY2019:17:45:00,76.7,13.31,71.7,71.5,70.3,71.7,68.8,29,39,19,0.568,35.6,43.1,27.3,1.644,2.3,167,26,4.0,0.00206,0.00257,60.0,55.3,18,341,0,78.2,15.11,0.00,0.00
15min,AgWx,beryljct,423,12MAY2019:18:00:00,76.3,13.2,69.2,69.7,70.9,72.2,69.7,30,46,20,1.101,37.6,48.0,29.2,0.482,0.5,193,1.6,1.8,0.00136,0.00154,60.1,55.4,18,289,0,76.9,15.11,0.00,0.00
15min,AgWx,beryljct,423,12MAY2019:18:15:00,75.7,13.18,65.6,66.1,67.9,69.7,66.1,45,49,39,1.013,45.7,48.8,43.1,2.653,2.2,154,20,3.6,0.00126,0.00160,60.2,55.5,18,237,0,71.9,15.11,0.00,0.00
15min,AgWx,beryljct,423,12MAY2019:18:30:00,74.2,13.14,65.5,66.1,66.4,67.1,65.9,42,50,35,0.933,42.6,46.6,38.3,3.464,3.5,153,5.3,4.4,0.00111,0.00160,60.2,55.7,18,187,0,68.0,15.11,0.01,0.00
15min,AgWx,beryljct,423,12MAY2019:18:45:00,72.5,13.12,67.0,67.2,66.8,67.3,66.0,38,43,32,0.750,40.2,42.8,36.7,3.88,3.4,160,6.3,4.4,0.00059,0.00084,60.2,55.8,18,142,0,66.7,15.11,0.00,0.00
15min,AgWx,beryljct,423,12MAY2019:19:00:00,70.8,13.13,67.4,67.0,66.9,67.4,66.5,32,35,29,0.656,36.0,38.6,33.6,3.398,3.9,167,3.3,4.6,0.00055,0.00080,60.2,55.9,18,99,0,64.4,15.12,0.00,0.00
15min,AgWx,beryljct,423,12MAY2019:19:15:00,68.9,13.1,60.2,61.5,65.2,67.3,61.5,37,56,29,1.040,37.9,45.6,33.5,2.017,3.3,158,3.4,4.0,0.00031,0.00048,60.2,56.1,18,53,0,60.8,15.12,0.00,0.00
15min,AgWx,beryljct,423,12MAY2019:19:30:00,66.3,13.07,54.7,55.9,58.3,61.4,55.9,61,66,57,1.000,44.9,46.3,43.6,2.631,2.1,195,11,2.7,-0.00003,-0.00001,60.1,56.2,18,23,0,53.4,15.12,0.00,0.00
15min,AgWx,beryljct,423,12MAY2019:19:45:00,63.2,13.06,51.2,52.2,54.2,55.9,52.2,65,70,63,0.926,42.9,44.9,41.8,3.31,2.5,210,7.6,3.4,-0.00007,-0.00007,60.0,56.3,18,4,0,48.6,15.13,0.00,0.00
15min,AgWx,beryljct,423,12MAY2019:20:00:00,60.0,13.06,51.1,51.3,51.5,52.2,51.0,71,74,65,0.893,42.3,43.1,41.0,3.135,2.7,216,3.8,3.5,-0.00008,-0.00009,59.9,56.4,18,1,0,44.8,15.13,0.01,0.00
15min,AgWx,beryljct,423,12MAY2019:20:15:00,57.5,13.03,51.0,50.4,50.6,51.4,50.0,71,72,69,0.866,41.5,42.0,40.8,3.091,2.9,218,4.0,3.4,-0.00007,-0.00007,59.8,56.4,18,0,0,44.0,15.13,0.00,0.00
15min,AgWx,beryljct,423,12MAY2019:20:30:00,55.6,13.02,50.5,50.2,50.0,50.5,49.6,70,71,68,0.845,40.5,41.0,40.0,3.003,3.3,222,2.1,4.0,-0.00004,-0.00003,59.6,56.5,18,0,0,43.3,15.13,0.00,0.00
15min,AgWx,beryljct,423,12MAY2019:20:45:00,54.4,13.01,53.6,51.9,51.3,52.2,50.1,63,68,60,0.786,39.1,40.2,38.4,3.705,2.9,206,8.6,3.7,-0.00004,-0.00003,59.5,56.6,18,0,0,43.8,15.14,0.00,0.00
15min,AgWx,beryljct,423,12MAY2019:21:00:00,53.4,13.01,48.0,48.3,50.4,52.9,48.3,65,72,57,0.830,39.3,40.2,37.8,4.187,4.2,161,27,6.6,0.00003,0.00007,59.3,56.6,18,0,0,43.9,15.14,0.00,0.00
15min,AgWx,beryljct,423,12MAY2019:21:15:00,52.5,12.99,50.0,50.9,50.2,52.2,48.2,66,73,60,0.816,39.1,39.9,38.3,3.661,5.0,170,12,6.6,0.00007,0.00011,59.1,56.7,18,0,0,43.8,15.14,0.01,0.00
15min,AgWx,beryljct,423,12MAY2019:21:30:00,52.3,12.98,52.9,52.1,52.0,54.3,50.4,60,66,53,0.805,38.6,39.6,37.4,3.266,4.0,201,9.6,6.0,0.00005,0.00010,58.9,56.8,18,0,0,45.4,15.14,0.00,0.00
15min,AgWx,beryljct,423,12MAY2019:21:45:00,52.2,12.98,47.2,47.3,51.0,53.3,46.2,63,77,57,0.832,38.9,39.9,38.1,2.565,3.3,193,41,4.9,-0.00001,0.00002,58.7,56.8,18,0,0,44.7,15.15,0.00,0.00
15min,AgWx,beryljct,423,12MAY2019:22:00:00,51.4,12.96,56.5,54.2,48.3,54.6,44.4,71,83,53,0.762,39.1,40.3,37.5,3.793,3.2,70,68,6.5,-0.00005,-0.00004,58.5,56.8,18,0,0,41.3,15.15,0.00,0.00
15min,AgWx,beryljct,423,12MAY2019:22:15:00,51.3,12.96,55.5,56.5,51.9,57.8,49.4,59,66,43,0.713,37.8,38.6,35.4,0.175,4.1,58,46,6.7,0.00007,0.00012,58.3,56.8,18,0,0,45.3,15.15,0.00,0.00
15min,AgWx,beryljct,423,12MAY2019:22:30:00,51.1,12.95,53.0,49.6,49.2,56.5,47.4,66,72,46,0.798,38.4,38.9,36.1,6.73,5.3,83,16,6.7,0.00007,0.00012,58.1,56.8,18,0,0,43.3,15.15,0.00,0.00
15min,AgWx,beryljct,423,12MAY2019:22:45:00,50.6,12.94,44.9,45.4,48.7,52.1,45.4,67,77,58,0.793,38.2,38.8,37.6,3.025,5.0,64,17,7.5,0.00006,0.00010,57.9,56.8,18,0,0,42.9,15.15,0.00,0.00
15min,AgWx,beryljct,423,12MAY2019:23:00:00,49.4,12.95,46.1,48.2,45.9,49.8,44.2,75,82,63,0.759,38.5,39.1,37.3,0,0.9,61,83,3.2,-0.00021,-0.00030,57.7,56.8,18,0,0,37.9,15.15,0.00,0.00
15min,AgWx,beryljct,423,12MAY2019:23:15:00,48.3,12.95,44.1,45.8,46.6,48.6,45.3,71,75,66,0.751,37.8,38.3,37.2,1.688,0.9,272,54,1.9,-0.00022,-0.00031,57.5,56.8,18,0,0,37.8,15.15,0.00,0.00
15min,AgWx,beryljct,423,12MAY2019:23:30:00,47.2,12.95,48.4,45.0,44.6,46.7,43.2,77,83,71,0.783,37.9,38.5,37.0,0.68,1.0,210,37,2.5,-0.00021,-0.00030,57.3,56.8,18,0,0,36.5,15.15,0.00,0.00
15min,AgWx,bigpiney,439,12MAY2019:00:00:00,42.5,12.71,41.9,40.8,40.4,41.3,39.4,65,67,63,0.550,29.5,30.1,29.2,3.201,2.7,249,25,5.2,-0.00007,-0.00007,42.5,37.0,55,0,0,0.0,2.04,0.00,0.00
15min,AgWx,bigpiney,439,12MAY2019:00:15:00,42.2,12.71,42.8,41.7,42.0,42.8,40.9,59,63,57,0.541,28.9,29.4,28.5,3.047,2.6,338,31,4.8,-0.00006,-0.00006,42.3,37.0,55,0,0,0.0,2.04,0.00,0.00
15min,AgWx,bigpiney,439,12MAY2019:00:30:00,42.0,12.7,36.9,35.6,39.3,42.0,35.3,67,80,59,0.567,29.0,30.2,28.5,1.798,3.0,38,26,6.5,-0.00006,-0.00005,42.2,37.0,55,0,0,0.0,2.04,0.00,0.00
15min,AgWx,bigpiney,439,12MAY2019:00:45:00,41.4,12.69,35.2,35.1,35.9,36.3,35.1,77,80,76,0.538,29.5,30.2,28.9,2.784,2.3,60,12,3.3,-0.00012,-0.00015,42.1,37.1,55,0,0,0.0,2.04,0.00,0.00
15min,AgWx,bigpiney,439,12MAY2019:01:00:00,40.7,12.68,34.3,34.3,34.7,35.2,34.3,78,79,77,0.528,28.6,28.9,28.4,0,2.0,69,9.5,3.2,-0.00013,-0.00016,42.0,37.0,55,0,0,0.0,2.04,0.00,0.00
15min,AgWx,bigpiney,439,12MAY2019:01:15:00,39.9,12.67,33.9,33.7,34.6,35.5,33.7,78,79,75,0.515,28.3,28.9,27.5,2.587,1.9,119,16,2.6,-0.00014,-0.00017,41.8,37.1,55,0,0,0.0,2.04,0.00,0.00
15min,AgWx,bigpiney,439,12MAY2019:01:30:00,39.1,12.65,34.3,33.6,33.4,33.7,33.1,79,80,78,0.509,27.6,27.8,27.2,1.469,2.1,138,16,2.9,-0.00012,-0.00015,41.7,37.0,55,0,0,0.0,2.04,0.00,0.00
15min,AgWx,bigpiney,439,12MAY2019:01:45:00,38.4,12.65,33.8,33.2,33.2,33.9,32.5,79,81,77,0.511,27.3,27.7,26.8,4.121,2.2,140,11,4.2,-0.00012,-0.00015,41.6,37.0,55,0,0,0.0,2.04,0.00,0.00
15min,AgWx,bigpiney,439,12MAY2019:02:00:00,37.9,12.65,37.1,36.2,34.5,36.3,33.2,77,80,73,0.532,27.9,29.0,26.9,1.732,3.2,124,26,4.3,-0.00008,-0.00008,41.5,37.0,55,0,0,0.0,2.04,0.00,0.00
15min,AgWx,bigpiney,439,12MAY2019:02:15:00,37.6,12.64,35.6,36.8,37.2,37.4,36.3,72,74,71,0.536,28.9,29.1,28.7,0,2.8,38,7.9,4.6,-0.00008,-0.00009,41.3,37.0,55,0,0,0.0,2.04,0.00,0.00
15min,AgWx,bigpiney,439,12MAY2019:02:30:00,37.6,12.62,33.2,33.5,35.2,36.6,33.5,76,80,73,0.521,28.5,29.3,27.9,2.433,1.9,221,27,4.3,-0.00014,-0.00017,41.2,37.0,55,0,0,0.0,2.04,0.00,0.00
15min,AgWx,bigpiney,439,12MAY2019:02:45:00,37.4,12.62,34.3,34.3,33.5,34.3,32.9,81,83,78,0.524,28.3,28.8,27.9,2.981,3.5,211,4.6,4.3,-0.00008,-0.00009,41.1,37.0,55,0,0,0.0,2.04,0.00,0.00
15min,AgWx,bigpiney,439,12MAY2019:03:00:00,37.0,12.61,38.2,38.0,35.9,38.0,33.8,74,81,68,0.525,28.3,28.8,27.7,2.039,2.8,193,18,4.3,-0.00009,-0.00010,41.0,37.0,55,0,0,0.0,2.04,0.00,0.00
15min,AgWx,bigpiney,439,12MAY2019:03:15:00,36.9,12.61,38.7,38.1,37.6,38.1,37.1,68,70,67,0.522,28.1,28.5,27.9,1.052,1.2,190,17,2.1,-0.00017,-0.00023,40.9,37.0,55,0,0,0.0,2.04,0.00,0.00
15min,AgWx,bigpiney,439,12MAY2019:03:30:00,36.8,12.6,32.4,34.0,37.0,38.2,34.0,69,78,67,0.515,27.9,28.3,27.1,0,1.1,198,34,1.9,-0.00018,-0.00024,40.7,37.1,55,0,0,0.0,2.04,0.00,0.00
15min,AgWx,bigpiney,439,12MAY2019:03:45:00,36.5,12.59,33.3,32.8,32.3,33.8,31.2,84,86,79,0.527,27.9,28.6,26.6,0,0.1,269,15,0.7,-0.00025,-0.00039,40.6,37.0,55,0,0,0.0,2.04,0.00,0.00
15min,AgWx,bigpiney,439,12MAY2019:04:00:00,36.1,12.57,31.6,31.8,32.6,33.2,31.8,85,86,84,0.510,28.5,28.9,27.6,1.951,1.1,238,22,2.3,-0.00018,-0.00025,40.5,37.0,55,0,0,0.0,2.04,0.00,0.00
15min,AgWx,bigpiney,439,12MAY2019:04:15:00,35.6,12.56,30.8,30.7,31.3,31.8,30.6,85,86,83,0.500,27.1,27.8,26.5,4.121,3.6,217,14,4.7,-0.00008,-0.00009,40.4,36.9,55,0,0,0.0,2.04,0.00,0.00
15min,AgWx,bigpiney,439,12MAY2019:04:30:00,35.1,12.55,33.4,32.7,31.4,32.7,30.7,87,88,85,0.540,27.8,29.0,27.0,1.885,3.1,233,12,4.9,-0.00010,-0.00012,40.2,37.0,55,0,0,0.0,2.04,0.00,0.00
15min,AgWx,bigpiney,439,12MAY2019:04:45:00,34.7,12.55,31.2,35.8,34.4,36.4,32.4,79,86,69,0.489,28.5,30.0,26.6,3.705,2.1,217,16,3.7,-0.00013,-0.00016,40.1,36.9,55,0,0,0.0,2.04,0.00,0.00
15min,AgWx,bigpiney,439,12MAY2019:05:00:00,34.4,12.54,30.7,30.5,30.6,35.3,29.8,83,88,68,0.503,25.9,27.3,24.4,4.45,4.1,218,12,6.6,-0.00006,-0.00006,40.0,36.9,55,2,0,0.0,2.04,0.00,0.00
15min,AgWx,bigpiney,439,12MAY2019:05:15:00,34.0,12.55,31.7,30.5,29.7,30.7,29.1,87,88,86,0.506,26.3,27.5,25.6,3.793,3.8,216,14,5.2,-0.00022,-0.00019,39.9,36.9,55,10,0,0.0,2.04,0.00,0.00
15min,AgWx,bigpiney,439,12MAY2019:05:30:00,33.8,12.55,30.8,30.7,31.0,31.8,30.3,86,88,84,0.503,27.2,27.9,26.4,2.784,4.2,224,10,6.2,-0.00018,-0.00013,39.8,36.8,55,25,0,0.0,2.04,0.00,0.00
15min,AgWx,bigpiney,439,12MAY2019:05:45:00,33.9,12.57,31.9,31.8,31.1,32.1,30.3,87,89,86,0.522,27.8,28.8,26.7,0.965,1.7,239,24,3.6,-0.00012,-0.00010,39.7,36.9,55,52,0,0.0,2.04,0.00,0.00
15min,AgWx,bigpiney,439,12MAY2019:06:00:00,34.1,12.59,32.8,32.7,32.5,33.1,31.7,87,88,85,0.548,28.9,29.3,28.1,0,0.4,210,19,1.4,0.00003,0.00004,39.5,36.9,55,80,0,0.0,2.04,0.00,0.00
15min,AgWx,bigpiney,439,12MAY2019:06:15:00,34.8,12.62,32.7,32.4,32.6,33.1,32.1,88,90,87,0.542,29.6,30.5,28.6,1.008,1.0,335,40,2.5,0.00021,0.00024,39.4,36.8,55,126,0,0.0,2.04,0.00,0.00
15min,AgWx,bigpiney,439,12MAY2019:06:30:00,35.8,12.65,35.0,34.3,33.4,34.3,32.4,85,87,83,0.566,29.5,30.3,28.9,0.022,0.3,284,43,1.1,0.00039,0.00042,39.3,36.8,55,160,0,0.0,2.04,0.00,0.00
15min,AgWx,bigpiney,439,12MAY2019:06:45:00,37.1,12.69,36.0,35.8,34.9,36.0,34.2,86,87,84,0.607,31.1,32.1,30.1,0,0.3,152,42,2.0,0.00063,0.00068,39.2,36.7,55,217,0,0.0,2.04,0.00,0.00
15min,AgWx,bigpiney,439,12MAY2019:07:00:00,38.7,12.71,38.4,37.6,36.9,37.8,35.8,82,86,78,0.600,31.8,33.1,31.0,0,0.7,337,15,3.0,0.00090,0.00097,39.1,36.7,55,268,0,0.0,2.04,0.00,0.00
15min,AgWx,bigpiney,439,12MAY2019:07:15:00,40.6,12.86,40.6,40.4,39.1,40.4,37.7,77,80,75,0.653,32.5,33.7,31.5,0,0.7,287,46,2.7,0.00119,0.00129,39.0,36.7,55,320,0,0.0,2.04,0.00,0.00
15min,AgWx,bigpiney,439,12MAY2019:07:30:00,42.7,13.11,42.8,42.7,41.4,42.7,40.4,74,76,71,0.691,33.7,35.6,32.3,0,0.8,133,51,2.4,0.00151,0.00164,38.9,36.7,55,376,0,0.0,2.04,0.00,0.00
15min,AgWx,bigpiney,439,12MAY2019:07:45:00,44.5,13.38,45.5,44.6,43.9,44.8,42.6,70,75,66,0.678,34.8,36.7,33.7,1.841,1.3,68,54,3.2,0.00185,0.00203,38.8,36.6,55,431,0,0.0,2.04,0.00,0.00
15min,AgWx,bigpiney,439,12MAY2019:08:00:00,46.3,13.67,48.1,47.2,45.8,47.2,44.6,60,69,57,0.661,32.9,35.2,31.3,0.745,1.2,75,18,2.8,0.00214,0.00235,38.7,36.6,55,468,0,0.0,2.04,0.00,0.00
15min,AgWx,bigpiney,439,12MAY2019:08:15:00,48.3,14.58,48.5,48.0,47.7,48.4,47.1,63,66,59,0.687,35.6,37.1,34.1,3.135,2.6,65,21,4.6,0.00251,0.00281,38.6,36.6,55,528,0,0.0,2.04,0.00,0.00